Tracking 31027 objects as of 19-Jul-2025
HD Live streaming from Space Station
objects crossing your sky now

STARLINK-5720

Track STARLINK-5720 now!
10-day predictions
STARLINK-5720 is classified as:


NORAD ID: 55619
Int'l Code: 2023-020BC
Perigee: 565.5 km
Apogee: 567.0 km
Inclination: 43.0 °
Period: 95.8 minutes
Semi major axis: 6937 km
RCS: Unknown
Launch date: February 12, 2023
Source: United States (US)
Launch site: AIR FORCE EASTERN TEST RANGE (AFETR)
Your satellite tracking list
STARLINK-2062
Track 1 satellite(s)




NASA's NSSDC Master Catalog

Two Line Element Set (TLE):
1 55619U 23020BC  25199.43462109 -.00000744  00000-0 -39991-4 0  9990
2 55619  43.0015 184.3390 0001062 279.6557  80.4165 15.02531096133833
Source of the keplerian elements: AFSPC